Location: �clusier
(49.9361°N, 2.7869°E)
Time: 05:47:02
(UTC+00:00)

Cosmos 2016 Rocket - Pass Details

Date: 27 October 2021
Orbit: 947 x 1000 km, 83.0° (Epoch: 05 December)

Event Time Altitude Azimuth Distance (km) Brightness Sun altitude
Rises 18:41:39 0° 165° (SSE) 3,651 6.8 -21.0°
Reaches altitude 10° 18:44:16 10° 160° (SSE) 2,700 6.1 -21.4°
Enters shadow 18:45:58 19° 152° (SSE) 2,119 5.5 -21.7°
Exits shadow 18:50:13 44° 86° (E) 1,298 4.2 -22.4°
Drops below altitude 10° 18:55:49 10° 20° (NNE) 2,689 6.2 -23.3°
Sets 18:58:25 0° 14° (NNE) 3,635 6.9 -23.7°
